• In Hungary
  • List of Countries
  • For 7 days
  • Water Temperature
  • Satellite Maps
  • Weather Map
  • News
  • Weather Widgets
  • user-avatar
    Login

    Hourly Weather Fednevo

    Today, 25 February, Sunday

    Time Temperature Precipitation Wind Pressure Humidity
    00:00 -21°C° 0 mm 1 mps 757 mmHg 98%
    01:00 -22°C° 0 mm 1 mps 757 mmHg 98%
    02:00 -22°C° 0 mm 1 mps 757 mmHg 98%
    03:00 -23°C° 0 mm 1 mps 757 mmHg 98%
    04:00 -23°C° 0 mm 1 mps 757 mmHg 98%
    05:00 -23°C° 0 mm 1 mps 757 mmHg 98%
    06:00 -23°C° 0 mm 1 mps 757 mmHg 98%
    07:00 -23°C° 0 mm 1 mps 757 mmHg 98%
    08:00 -23°C° 0 mm 1 mps 757 mmHg 98%
    09:00 -21°C° 0 mm 1 mps 757 mmHg 95%
    10:00 -19°C° 0 mm 1 mps 757 mmHg 92%
    11:00 -17°C° 0 mm 1 mps 757 mmHg 88%
    12:00 -16°C° 0 mm 1 mps 756 mmHg 88%
    13:00 -15°C° 0 mm 1 mps 756 mmHg 87%
    14:00 -14°C° 0 mm 1 mps 756 mmHg 86%
    15:00 -15°C° 0 mm 1 mps 756 mmHg 89%
    16:00 -15°C° 0 mm 1 mps 756 mmHg 91%
    17:00 -16°C° 0 mm 1 mps 755 mmHg 94%
    18:00 -16°C° 0 mm 1 mps 755 mmHg 95%
    19:00 -17°C° 0 mm 1 mps 755 mmHg 96%
    20:00 -18°C° 0 mm 1 mps 755 mmHg 97%
    21:00 -19°C° 0 mm 1 mps 755 mmHg 98%
    22:00 -19°C° 0 mm 1 mps 755 mmHg 98%
    23:00 -20°C° 0 mm 1 mps 755 mmHg 99%

    Tomorrow, 26 February, Monday

    Time Temperature Precipitation Wind Pressure Humidity
    00:00 -20°C° 0 mm 1 mps 755 mmHg 99%
    01:00 -21°C° 0 mm 1 mps 755 mmHg 99%
    02:00 -22°C° 0 mm 1 mps 755 mmHg 99%
    03:00 -22°C° 0 mm 1 mps 755 mmHg 99%
    04:00 -22°C° 0 mm 1 mps 755 mmHg 99%
    05:00 -23°C° 0 mm 1 mps 755 mmHg 99%
    06:00 -23°C° 0 mm 1 mps 755 mmHg 98%
    07:00 -23°C° 0 mm 1 mps 755 mmHg 98%
    08:00 -23°C° 0 mm 1 mps 755 mmHg 98%
    09:00 -21°C° 0 mm 1 mps 755 mmHg 95%
    10:00 -20°C° 0 mm 1 mps 756 mmHg 92%
    11:00 -18°C° 0 mm 1 mps 756 mmHg 89%
    12:00 -18°C° 0 mm 1 mps 756 mmHg 87%
    13:00 -19°C° 0 mm 2 mps 756 mmHg 86%
    14:00 -18°C° 0 mm 2 mps 756 mmHg 84%
    15:00 -19°C° 0 mm 2 mps 756 mmHg 88%
    16:00 -20°C° 0 mm 2 mps 756 mmHg 91%
    17:00 -21°C° 0 mm 2 mps 757 mmHg 94%
    18:00 -23°C° 0 mm 2 mps 757 mmHg 95%
    19:00 -24°C° 0 mm 2 mps 757 mmHg 96%
    20:00 -25°C° 0 mm 2 mps 758 mmHg 97%
    21:00 -25°C° 0 mm 2 mps 758 mmHg 97%
    22:00 -26°C° 0 mm 2 mps 759 mmHg 97%
    23:00 -26°C° 0 mm 2 mps 759 mmHg 98%

    Day after tomorrow, 27 February, Tuesday

    Time Temperature Precipitation Wind Pressure Humidity
    00:00 -26°C° 0 mm 2 mps 760 mmHg 98%
    01:00 -27°C° 0 mm 2 mps 760 mmHg 98%
    02:00 -27°C° 0 mm 2 mps 761 mmHg 98%
    03:00 -27°C° 0 mm 2 mps 761 mmHg 97%
    04:00 -27°C° 0 mm 2 mps 761 mmHg 97%
    05:00 -27°C° 0 mm 2 mps 762 mmHg 97%
    06:00 -27°C° 0 mm 2 mps 762 mmHg 97%
    07:00 -27°C° 0 mm 2 mps 763 mmHg 96%
    08:00 -29°C° 0 mm 3 mps 764 mmHg 96%
    09:00 -25°C° 0 mm 2 mps 764 mmHg 94%
    10:00 -24°C° 0 mm 2 mps 764 mmHg 93%
    11:00 -23°C° 0 mm 2 mps 765 mmHg 92%
    12:00 -21°C° 0 mm 2 mps 765 mmHg 90%
    13:00 -22°C° 0 mm 3 mps 765 mmHg 89%
    14:00 -21°C° 0 mm 3 mps 766 mmHg 88%
    15:00 -22°C° 0 mm 3 mps 766 mmHg 90%
    16:00 -22°C° 0 mm 3 mps 766 mmHg 92%
    17:00 -21°C° 0 mm 2 mps 766 mmHg 93%
    18:00 -23°C° 0 mm 2 mps 767 mmHg 94%
    19:00 -24°C° 0 mm 3 mps 767 mmHg 95%
    20:00 -25°C° 0 mm 3 mps 767 mmHg 96%
    21:00 -25°C° 0 mm 3 mps 767 mmHg 96%
    22:00 -25°C° 0 mm 2 mps 768 mmHg 96%
    23:00 -25°C° 0 mm 2 mps 768 mmHg 97%

    28 February, Wednesday

    Time Temperature Precipitation Wind Pressure Humidity
    00:00 -26°C° 0 mm 2 mps 768 mmHg 97%
    01:00 -26°C° 0 mm 2 mps 768 mmHg 97%
    02:00 -26°C° 0 mm 2 mps 768 mmHg 97%
    03:00 -27°C° 0 mm 2 mps 768 mmHg 97%
    04:00 -27°C° 0 mm 2 mps 768 mmHg 97%
    05:00 -29°C° 0 mm 3 mps 768 mmHg 97%
    06:00 -29°C° 0 mm 3 mps 768 mmHg 96%
    07:00 -29°C° 0 mm 3 mps 768 mmHg 95%
    08:00 -29°C° 0 mm 3 mps 767 mmHg 95%
    09:00 -26°C° 0 mm 3 mps 767 mmHg 92%
    10:00 -24°C° 0 mm 3 mps 767 mmHg 90%
    11:00 -22°C° 0 mm 3 mps 767 mmHg 88%
    12:00 -21°C° 0 mm 3 mps 766 mmHg 87%
    13:00 -19°C° 0 mm 3 mps 766 mmHg 86%
    14:00 -19°C° 0 mm 4 mps 765 mmHg 86%
    15:00 -18°C° 0 mm 3 mps 765 mmHg 87%
    16:00 -19°C° 0 mm 3 mps 764 mmHg 89%
    17:00 -19°C° 0 mm 3 mps 764 mmHg 90%
    18:00 -19°C° 0 mm 3 mps 764 mmHg 91%
    19:00 -22°C° 0 mm 4 mps 763 mmHg 92%
    20:00 -22°C° 0 mm 4 mps 763 mmHg 92%
    21:00 -22°C° 0 mm 4 mps 763 mmHg 93%
    22:00 -20°C° 0 mm 4 mps 763 mmHg 93%
    23:00 -19°C° 0 mm 3 mps 763 mmHg 93%

    1 March, Thursday

    Time Temperature Precipitation Wind Pressure Humidity
    00:00 -19°C° 0 mm 3 mps 762 mmHg 93%
    01:00 -21°C° 0 mm 3 mps 762 mmHg 93%
    02:00 -21°C° 0 mm 3 mps 762 mmHg 93%
    03:00 -21°C° 0 mm 3 mps 762 mmHg 94%
    04:00 -21°C° 0 mm 3 mps 761 mmHg 94%
    05:00 -22°C° 0 mm 3 mps 761 mmHg 95%
    06:00 -22°C° 0 mm 3 mps 761 mmHg 95%
    07:00 -22°C° 0 mm 3 mps 761 mmHg 94%
    08:00 -22°C° 0 mm 3 mps 761 mmHg 94%
    09:00 -19°C° 0 mm 3 mps 760 mmHg 92%
    10:00 -18°C° 0 mm 3 mps 760 mmHg 90%
    11:00 -16°C° 0 mm 3 mps 760 mmHg 89%
    12:00 -15°C° 0 mm 3 mps 759 mmHg 88%
    13:00 -14°C° 0 mm 3 mps 759 mmHg 88%
    14:00 -13°C° 0 mm 3 mps 758 mmHg 87%
    15:00 -14°C° 0 mm 3 mps 758 mmHg 88%
    16:00 -14°C° 0 mm 3 mps 757 mmHg 90%
    17:00 -15°C° 0 mm 3 mps 757 mmHg 91%
    18:00 -15°C° 0 mm 3 mps 756 mmHg 91%
    19:00 -16°C° 0 mm 4 mps 756 mmHg 92%
    20:00 -17°C° 0 mm 4 mps 755 mmHg 93%
    21:00 -17°C° 0 mm 4 mps 755 mmHg 92%
    22:00 -15°C° 0 mm 3 mps 754 mmHg 92%
    23:00 -15°C° 0 mm 3 mps 754 mmHg 91%

    2 March, Friday

    Time Temperature Precipitation Wind Pressure Humidity
    00:00 -15°C° 0 mm 3 mps 754 mmHg 91%
    01:00 -15°C° 0 mm 3 mps 753 mmHg 91%
    02:00 -15°C° 0 mm 3 mps 753 mmHg 91%
    03:00 -16°C° 0 mm 3 mps 752 mmHg 91%
    04:00 -16°C° 0 mm 3 mps 752 mmHg 91%
    05:00 -16°C° 0 mm 3 mps 751 mmHg 91%
    06:00 -16°C° 0 mm 3 mps 751 mmHg 91%
    07:00 -15°C° 0 mm 3 mps 751 mmHg 91%
    08:00 -15°C° 0 mm 3 mps 750 mmHg 91%
    09:00 -14°C° 0 mm 3 mps 750 mmHg 91%
    10:00 -13°C° 0 mm 3 mps 750 mmHg 90%
    11:00 -12°C° 0 mm 3 mps 750 mmHg 90%
    12:00 -10°C° 0.1 mm 3 mps 749 mmHg 90%
    13:00 -10°C° 0.1 mm 3 mps 748 mmHg 90%
    14:00 -9°C° 0.1 mm 3 mps 748 mmHg 90%
    15:00 -9°C° 0.2 mm 3 mps 748 mmHg 91%
    16:00 -9°C° 0.2 mm 3 mps 747 mmHg 92%
    17:00 -10°C° 0.2 mm 3 mps 747 mmHg 93%
    18:00 -10°C° 0.3 mm 3 mps 746 mmHg 94%
    19:00 -10°C° 0.3 mm 3 mps 746 mmHg 94%
    20:00 -10°C° 0.3 mm 3 mps 746 mmHg 95%
    21:00 -9°C° 0.3 mm 2 mps 745 mmHg 95%
    22:00 -9°C° 0.3 mm 2 mps 745 mmHg 95%
    23:00 -9°C° 0.3 mm 2 mps 744 mmHg 96%
    Show more